Weather Roundup
Issued by NWS

Home | Current Version | Previous Version | Text Only | Print | Product List | Glossary On
Versions: 1 2 3 4 5 6 7 8 9 10 11 12 13 14 15 16 17 18 19 20 21 22 23 24 25 26 27 28 29 30 31 32 33 34 35 36 37 38 39 40 41 42 43 44 45 46 47 48 49 50
311
NZUS93 KARX 290259
HRRWXR

CURRENT HOURLY OBSERVATIONS ACROSS
MUCH OF THE UPPER MISSISSIPPI VALLEY
NATIONAL WEATHER SERVICE LA CROSSE WI
1000 PM CDT TUE MAR 28 2017


...SOUTHEAST MINNESOTA...


CITY           SKY/WX    TMP DP  RH WIND       PRES   REMARKS
ROCHESTER      CLOUDY    50  36  58 E6        30.18S
ROCHESTER/MAYO FAIR      51  36  55 CALM      30.18F
WINONA         CLOUDY    43  37  81 CALM      30.19S
AUSTIN         CLOUDY    45  37  76 E3        30.17F
ALBERT LEA     CLOUDY    48  36  61 E5        30.18R
DODGE CENTER   PTCLDY    46  36  66 E5        30.18F
PRESTON        PTCLDY    48  34  57 CALM      30.19S
OWATONNA       CLOUDY    48  36  61 CALM      30.18S
FARIBAULT      PTCLDY    46  37  71 CALM      30.19R
$$

...ELSEWHERE IN MINNESOTA...


CITY           SKY/WX    TMP DP  RH WIND       PRES   REMARKS
MINNEAPOLIS    CLOUDY    53  30  41 VRB3      30.19R
INTNL FALLS    CLEAR     40  25  55 NE6       30.25R
DULUTH         CLEAR     39  28  64 E6        30.23R WCI  35
RED WING       CLOUDY    43  30  61 CALM      30.18S
REDWOOD FALLS  CLOUDY    54  32  43 E5        30.18R
MANKATO        CLOUDY    51  37  58 E5        30.19R
WORTHINGTON    PTCLDY    46  39  76 E3        30.17R
FAIRMONT       PTCLDY    47  40  76 E5        30.18R
$$

...SOUTHWEST WISCONSIN...


CITY           SKY/WX    TMP DP  RH WIND       PRES   REMARKS
LA CROSSE      PTCLDY    46  38  73 CALM      30.19R
PRAIRIE DU CHI PTCLDY    44  38  80 CALM      30.19R
BOSCOBEL       CLOUDY    40  37  89 CALM      30.20R FOG
LONE ROCK      NOT AVBL
PLATTEVILLE    CLEAR     44  41  91 CALM      30.19R
FORT MC COY    CLEAR     38  34  84 E7        30.22R WCI  33
MAUSTON-NEW LI CLEAR     41  37  83 CALM      30.21R
VIROQUA        FAIR      49  34  57 CALM      30.20R
WIS DELLS      CLEAR     45  31  58 E7        30.21R
$$

...ELSEWHERE IN WISCONSIN...


CITY           SKY/WX    TMP DP  RH WIND       PRES   REMARKS
MILWAUKEE      DRZL/FOG  34  33  96 NE7       30.25R VSB 1/2 WCI  28
MADISON        CLEAR     42  36  79 E5        30.21R
GREEN BAY      CLEAR     38  38 100 NW3       30.24R
EAU CLAIRE     NOT AVBL
BLACK RVR FLS  FAIR      37  30  73 CALM      30.20R
MEDFORD        CLEAR     40  32  74 CALM      30.20R
WAUSAU         CLEAR     44  30  57 SE5       30.21R
WIS RAPIDS     CLEAR     44  32  62 SE7       30.23R
MARSHFIELD     CLEAR     45  32  60 SE6       30.20R
RICE LAKE      CLEAR     40  33  73 CALM      30.21R
$$

...NORTHEAST IOWA...


CITY           SKY/WX    TMP DP  RH WIND       PRES   REMARKS
WATERLOO       CLOUDY    43  38  82 E3        30.17S
DUBUQUE        CLEAR     40  38  93 CALM      30.17S
DECORAH        PTCLDY    46  39  76 CALM      30.17F
MASON CITY     CLOUDY    46  36  68 E7        30.18R
CHARLES CITY   CLOUDY    46  39  76 SE6       30.17F
OELWEIN        CLOUDY    43  41  93 SE5       30.18S
$$

...ELSEWHERE IN IOWA...


CITY           SKY/WX    TMP DP  RH WIND       PRES   REMARKS
DES MOINES     CLOUDY    51  43  74 E8        30.14R
IOWA CITY      CLOUDY    46  39  76 E6        30.19S
FORT DODGE     CLOUDY    46  39  76 SE3       30.15F
MARSHALLTOWN   CLOUDY    43  41  93 E6        30.15S
CEDAR RAPIDS   CLOUDY    40  38  93 E8        30.16F WCI  34
$$

...NORTHERN ILLINOIS...


CITY           SKY/WX    TMP DP  RH WIND       PRES   REMARKS
CHICAGO-OHARE  CLOUDY    40  35  83 NE9       30.21R WCI  34
CHICAGO-MIDWAY CLOUDY    43  38  82 VRB7      30.22R
MOLINE         PTCLDY    40  36  86 CALM      30.17S
ROCKFORD       CLEAR     42  35  76 NE5       30.22R
PEORIA         CLOUDY    47  40  76 NE7       30.18R
$$

NOTE: "FAIR" INDICATES FEW OR NO CLOUDS BELOW 12,000 FEET WITH NO
SIGNIFICANT WEATHER AND/OR OBSTRUCTIONS TO VISIBILITY. WIND
SPEEDS ARE IN MILES-PER-HOUR.




USA.gov is the U.S. government's official web portal to all federal, state and local government web resources and services.